Mc Entire JNGB Airport
KMMT : now visible

Airfield :











YOU CAN JOIN US ON...

 
LOGIN :

Register | Disclaimer

   EN    FR    IT 

 









Legend :    VFR   Marginal VFR   IFR   Intensive IFR   Very Intensive IFR
Visi :
Ceiling :
>= 8 km
>= 3000ft
5 to 8 km
1000 to 3000 ft
1500m to 5 km
500 to 1000 ft
800 to 1500m
200 to 500 ft
< 800m
< 200 ft
Symbols :   Thunderstorms  Fog  Heavy snow  Heavy precipitations  Wind > 20 kt






- Airport Elevation : 254 ft


KMMT - Mc Entire JNGB

CURRENT METAR :
  • 052356Z AUTO 00000KT 10SM CLR 06/05 A3001 RMK AO2 SLP167 T00590045 10156 20057 52014 $

EXPIRED METARs :
  • 052256Z AUTO 00000KT 10SM CLR 09/03 A3000 RMK AO2 SLP163 T00850029 $
  • 052156Z AUTO 32006KT 10SM CLR 12/03 A2999 RMK AO2 SLP159 T01210025 $

TAF TAF KMMT
Valid from the 05 at 16:00 until the 06 at 22:00 UTC


051600Z 0516/0622 32012KT 9999 SKC QNH3002INS
BECMG 0603/0604 30006KT 9999 SKC QNH2996INS TX12/0520Z TN03/0612Z
KZJX FIR / North America



MET'MAP, your aeronautical weather chart ! - Copyright ORBIFLY December 2007 - Disclaimer

ORBIFLY MET'MAP TEAM :

Programming & Development : Alexandra Zaïnal
Concept & original design : Baudouin d'Aumeries
Assistance for programming : Marc-Olivier Méhu
Technical & hardware support : Manuel Goepfert

Contact : metmap@orbifly.com




SOURCES & CREDITS :

   NOAA       Earth
Advisory